Grand Forks, ND

11:25 PM CDT on June 25, 2017 (GMT -0500)
Grand Forks International

Weather History for KGFK - July, 2013

Change the Weather History Date:

Tuesday, July 9, 2013

  Actual Average Record
Temperature  
Mean Temperature 65 °F 68 °F  
Max Temperature 73 °F 81 °F 96 °F (1970)
Min Temperature 57 °F 56 °F 45 °F (1953)
Degree Days  
Heating Degree Days 0 1  
Month to date heating degree days 0 10  
Since 1 June heating degree days 77 113  
Since 1 July heating degree days 0 10  
Cooling Degree Days 0 4  
Month to date cooling degree days 75 36  
Year to date cooling degree days 197 128  
Since 1 June cooling degree days 188 111  
Growing Degree Days 14 (Base 50)    
Moisture  
Dew Point 60 °F    
Average Humidity 77    
Maximum Humidity 93    
Minimum Humidity 61    
Precipitation  
Precipitation 0.15 in 0.11 in 1.83 in (2002)
Month to date precipitation 0.25 1.06  
Year to date precipitation 11.52 10.26  
Snow  
Snow 0.00 in 0.00 in - ()
Month to date snowfall 0.0 0.0  
Since 1 June snowfall 0.0 0.0  
Since 1 July snowfall 0.0 0.0  
Snow Depth 0.00 in    
Sea Level Pressure  
Sea Level Pressure 29.87 in    
Wind  
Wind Speed 10 mph (NNW)    
Max Wind Speed 30 mph    
Max Gust Speed 40 mph    
Visibility 10 miles    
Events Rain    
T = Trace of Precipitation, MM = Missing Value Source: NWS Daily Summary

Daily Weather History Graph

Daily Weather History Graph

Search for Another Location

Airport or City:

Trip Planner

Search our weather history database for the weather conditions in past years. The results will help you decide how hot, cold, wet, or windy it might be!

Date:

Astronomy

Jul. 09, 2013 Rise Set
Actual Time 5:39 AM CDT 9:27 PM CDT
Civil Twilight 4:59 AM CDT 10:07 PM CDT
Nautical Twilight 4:05 AM CDT 11:02 PM CDT
Astronomical Twilight 2:43 AM CDT 12:22 AM CDT
Moon 7:15 AM CDT (7/9) 9:52 PM CDT (7/9)
Length of Visible Light 17h 08m
Length of Day
15h 48m
New Moon, 2% of the Moon is Illuminated
Jul 9
New Moon
Jul 15
First Quarter
Jul 22
Full
Jul 29
Last Quarter
Aug 6
New

Hourly Weather History & Observations

Time (CDT) Temp. Dew Point Humidity Pressure Visibility Wind Dir Wind Speed Gust Speed Precip Events Conditions
12:53 AM 72.0 °F 63.0 °F 73% 29.81 in 10.0 mi SSE 8.1 mph - N/A   Clear
1:53 AM 69.1 °F 63.0 °F 81% 29.80 in 10.0 mi South 6.9 mph - N/A   Clear
2:53 AM 71.1 °F 64.0 °F 78% 29.83 in 10.0 mi SW 13.8 mph 23.0 mph N/A   Mostly Cloudy
3:12 AM 66.2 °F 62.6 °F 88% 29.86 in 5.0 mi NW 19.6 mph 36.8 mph 0.00 in Rain Heavy Rain
3:53 AM 66.0 °F 63.0 °F 90% 29.80 in 10.0 mi North 10.4 mph 19.6 mph 0.05 in Rain Light Rain
4:53 AM 66.0 °F 63.0 °F 90% 29.75 in 10.0 mi North 3.5 mph - 0.00 in   Overcast
5:53 AM 64.9 °F 64.0 °F 97% 29.77 in 10.0 mi Calm Calm - 0.00 in Rain Light Rain
6:53 AM 64.9 °F 64.0 °F 97% 29.78 in 10.0 mi NW 4.6 mph - 0.00 in   Overcast
7:19 AM 66.2 °F 64.4 °F 94% 29.82 in 10.0 mi WNW 6.9 mph - 0.00 in   Overcast
7:53 AM 63.0 °F 62.1 °F 97% 29.81 in 6.0 mi North 11.5 mph 19.6 mph 0.00 in Rain Light Rain
8:53 AM 63.0 °F 62.1 °F 97% 29.83 in 10.0 mi NW 10.4 mph - 0.10 in   Overcast
9:53 AM 62.1 °F 60.1 °F 93% 29.83 in 10.0 mi NW 10.4 mph - N/A   Overcast
10:53 AM 62.1 °F 60.1 °F 93% 29.85 in 10.0 mi NNW 15.0 mph - N/A   Overcast
11:51 AM 66.2 °F 60.8 °F 83% 29.86 in 10.0 mi North 15.0 mph 21.9 mph N/A   Overcast
11:53 AM 66.0 °F 61.0 °F 84% 29.86 in 10.0 mi North 12.7 mph 21.9 mph N/A   Overcast
12:28 PM 66.2 °F 62.6 °F 88% 29.87 in 10.0 mi NNW 15.0 mph - N/A   Overcast
12:53 PM 66.9 °F 60.1 °F 79% 29.88 in 10.0 mi NNW 18.4 mph 24.2 mph N/A   Overcast
1:53 PM 66.9 °F 55.9 °F 68% 29.90 in 10.0 mi North 20.7 mph 27.6 mph N/A   Overcast
2:41 PM 68.0 °F 57.2 °F 68% 29.91 in 10.0 mi North 18.4 mph 27.6 mph N/A   Mostly Cloudy
2:53 PM 68.0 °F 57.0 °F 68% 29.90 in 10.0 mi North 19.6 mph 27.6 mph N/A   Mostly Cloudy
3:53 PM 69.1 °F 55.0 °F 61% 29.91 in 10.0 mi North 17.3 mph 23.0 mph N/A   Mostly Cloudy
4:53 PM 71.1 °F 57.0 °F 61% 29.93 in 10.0 mi NW 11.5 mph 19.6 mph N/A   Mostly Cloudy
5:53 PM 68.0 °F 55.9 °F 65% 29.93 in 10.0 mi NNW 11.5 mph - N/A   Overcast
6:53 PM 66.9 °F 57.0 °F 70% 29.94 in 10.0 mi NNW 8.1 mph - N/A   Mostly Cloudy
7:53 PM 66.9 °F 57.0 °F 70% 29.95 in 10.0 mi NNW 10.4 mph - N/A   Mostly Cloudy
8:53 PM 64.9 °F 55.0 °F 70% 29.96 in 10.0 mi NW 6.9 mph - N/A   Scattered Clouds
9:53 PM 59.0 °F 55.9 °F 90% 29.98 in 10.0 mi West 5.8 mph - N/A   Clear
10:53 PM 57.9 °F 55.0 °F 90% 30.00 in 10.0 mi West 6.9 mph - N/A   Clear
11:53 PM 57.9 °F 55.0 °F 90% 30.00 in 10.0 mi West 6.9 mph - N/A   Clear